Home > Weather > Asuncion > Past weeks

Flag for Paraguay Past Weather in Asuncion, Paraguay — Yesterday and Last 2 Weeks

Now
50 °F

Clear.


Feels Like: 46 °F
Forecast: 49 / 68 °F
Wind: 12 mph from South

Location: Asuncion / Aeropuerto

Current Time: Jul 27, 2016 at 3:52:10 AM

Latest Report: Jul 27, 2016 at 2:00 AM


Visibility: 10 mi

Pressure: 30.24 "Hg

Humidity: 82%

Dew Point: 45 °F

Location of AsuncionLocation

Past Weather in Asuncion — Graph

°F

Asuncion Temperature Yesterday

Maximum temperature yesterday: 73 °F (at 12:00 AM)
Minimum temperature yesterday: 52 °F (at 10:00 PM)
Average temperature yesterday: 65 °F

High & Low Weather Summary for the Past Weeks

 TemperatureHumidityPressure
High90 °F (Jul 14, 1:00 PM)100% (Jul 14, 5:00 AM)30.33 "Hg (Jul 14, 5:00 AM)
Low39 °F (Jul 17, 6:00 AM)23% (Jul 17, 5:00 PM)29.68 "Hg (Jul 14, 1:00 PM)
Average62 °F70%30.02 "Hg
* Reported Jul 12 2:00 AM — Jul 27 2:00 AM, Asuncion, Weather by CustomWeather, © 2016

Note: Actual official high and low records may vary slightly from our data, if they occured in-between our weather recording intervals... More about our weather records

Advertising

Asuncion Weather History for the Previous 24 Hours

Scroll right to see more
 ConditionsComfort  
Time TempWeatherWind HumidityBarometerVisibility
2:00 AM
Wed, Jul 27
50 °FClear.12 mph82%30.24 "Hg10 mi
1:00 AM52 °FClear.17 mph82%30.24 "Hg10 mi
12:00 AM54 °FClear.10 mph77%30.21 "Hg10 mi
11:00 PM
Tue, Jul 26
52 °FClear.2 mph88%30.21 "Hg10 mi
10:00 PM52 °FClear.3 mph82%30.18 "Hg10 mi
9:00 PM54 °FClear.6 mph82%30.18 "Hg10 mi
8:00 PM54 °FClear.6 mph88%30.15 "Hg10 mi
7:00 PM57 °FClear.8 mph77%30.12 "Hg10 mi
6:00 PM59 °FClear.10 mph72%30.09 "Hg10 mi
5:00 PM63 °FClear.15 mph68%30.09 "Hg10 mi
4:00 PM66 °FPassing clouds.12 mph60%30.07 "HgN/A
3:00 PM70 °FPassing clouds.12 mph57%30.04 "HgN/A
2:00 PM70 °FPassing clouds.15 mph53%30.01 "HgN/A
1:00 PM70 °FPassing clouds.8 mph57%30.04 "HgN/A
12:00 PM66 °FPartly sunny.12 mph68%30.04 "HgN/A
11:00 AM64 °FOvercast.12 mph78%30.04 "HgN/A
10:00 AM64 °FOvercast.13 mph78%30.04 "HgN/A
9:30 AM64 °FOvercast.9 mph83%30.01 "HgN/A
9:00 AM64 °FOvercast.15 mph83%30.01 "HgN/A
8:30 AM66 °FPartly sunny.10 mph83%29.98 "HgN/A
8:00 AM66 °FPartly sunny.15 mph78%29.95 "HgN/A
7:30 AM66 °FPartly sunny.14 mph83%29.92 "HgN/A
7:00 AM66 °FOvercast.14 mph83%29.92 "HgN/A
6:00 AM68 °FPassing clouds.17 mph83%29.86 "HgN/A
5:00 AM68 °FPassing clouds.6 mph73%29.83 "HgN/A
4:00 AM70 °FPassing clouds.No wind69%29.83 "HgN/A
3:00 AM73 °FPassing clouds.9 mph65%29.80 "HgN/A
Weather by CustomWeather, © 2016

See weather overviewHow to use our weather pages